Weather observations for the past three days for
Wales
Imperial (Metric)
Date Time (akdt) Wind (mph) Vis. (mi.) Weather Sky Cond. Temperature (ºF) Relative Humidity Wind Chill (°F) Heat Index (°F) Pressure Precipitation (in)
Air Dwpt 6 hour altimeter (in) sea level (mb) 1 hr 3 hr 6 hr
Max. Min.
02 10:56 NW 14 10.00 Overcast BKN013 OVC044 23 19 85% 11 29.62 1003.1
02 09:56 NW 13 10.00 Overcast BKN011 OVC038 23 19.9 25 21.9 88% 12 29.59 1002.1
02 08:56 NW 15 10.00 Overcast OVC011 21.9 21 96% 10 29.58 1001.6
02 07:56 NW 14 10.00 Overcast OVC013 23 21.9 96% 11 29.55 1000.7
02 06:56 N 12 10.00 Overcast OVC011 23 21.9 96% 13 29.53 999.8
02 05:56 N 13 8.00 Light Snow OVC009 23 23 100% 12 29.5 999.1
02 04:56 N 13 10.00 Overcast OVC009 24.1 24.1 100% 13 29.48 998.4
02 03:56 N 13 10.00 Overcast OVC009 25 25 28 25 100% 14 29.46 997.7
02 02:56 N 10 10.00 Overcast OVC009 25 25 100% 16 29.45 997.3
02 01:56 N 12 10.00 Overcast OVC009 26.1 26.1 100% 16 29.43 996.5
02 00:56 N 20 9.00 Light Snow OVC009 26.1 26.1 100% 13 29.41 995.9
01 23:56 NW 18 5.00 Light Snow Fog/Mist OVC009 27 27 100% 15 29.39 995.3
01 22:56 N 16 4.00 Light Snow Fog/Mist BKN009 OVC023 27 27 100% 16 29.38 994.8
01 21:56 N 18 1.25 Light Snow Fog/Mist OVC008 28 28 32 28 100% 16 29.36 994.3
01 20:56 N 16 2.00 Light Snow Fog/Mist OVC006 28.9 28.9 100% 18 29.35 994.0
01 19:56 N 17 9.00 Unknown Precip OVC004 30 30 100% 19 29.35 993.7
01 18:56 N 21 9.00 Overcast and Breezy OVC004 30.9 30.9 100% 19 29.34 993.5
01 17:56 N 18 6.00 Fog/Mist OVC004 30.9 30.9 100% 20 29.34 993.4
01 16:56 N 17 5.00 Unknown Precip Fog/Mist OVC004 30.9 30.9 100% 20 29.34 993.6
01 15:56 N 18 5.00 Unknown Precip Fog/Mist OVC004 32 32 34 32 100% 21 29.34 993.5
01 14:56 N 16 4.00 Unknown Precip Fog/Mist OVC004 32 32 100% 22 29.34 993.4
01 13:56 N 16 0.50 Light Rain Fog OVC004 33.1 33.1 100% 23 29.34 993.6
01 12:56 N 10 6.00 Unknown Precip Fog/Mist OVC004 34 34 100% 27 29.35 993.8
01 11:56 N 10 1.25 Light Rain OVC004 33.8 0 0% 26 29.35 993.9
01 10:56 NE 13 10.00 Unknown Precip OVC004 32 0 0% 23 29.35 994.0
01 09:56 NE 12 10.00 Overcast OVC004 32 32 32 32 100% 24 29.36 994.2
01 08:56 NE 9 5.00 Fog/Mist OVC004 32 32 100% 25 29.37 994.5
01 07:56 NE 10 10.00 Overcast OVC004 32 32 100% 24 29.38 994.9
01 06:56 NE 14 0.75 Unknown Precip Fog/Mist OVC002 32 32 100% 23 29.39 995.4
01 05:56 NE 14 1.50 Unknown Precip OVC002 32 0 0% 23 29.41 995.8
01 04:56 NE 15 0.50 Unknown Precip OVC002 32 0 0% 22 29.42 996.1
01 03:56 NE 17 0.75 Unknown Precip Fog/Mist OVC002 32 32 33.1 30.9 100% 22 29.43 996.6
01 02:56 NE 14 10.00 Unknown Precip OVC004 30.9 30.9 100% 21 29.45 997.1
01 01:56 NE 9 10.00 Overcast FEW005 BKN010 OVC023 32 32 100% 25 29.47 997.8
01 00:56 E 12 10.00 Overcast OVC014 32 0 0% 24 29.48 998.3
30 23:56 NE 14 10.00 Unknown Precip BKN003 OVC008 32 0 0% 23 29.49 998.7
30 22:56 E 14 10.00 Overcast OVC003 33.8 0 0% 25 29.5 999.1
30 21:56 NE 10 10.00 Overcast OVC003 33.1 33.1 39 33.1 100% 26 29.52 999.6
30 20:56 E 15 10.00 Overcast OVC005 34 34 100% 25 29.53 1000.0
30 19:56 NE 15 10.00 Mostly Cloudy FEW007 BKN110 35.1 35.1 100% 26 29.54 1000.5
30 18:56 NE 12 10.00 A Few Clouds FEW100 35.1 35.1 100% 28 29.57 1001.3
30 17:56 NE 12 10.00 A Few Clouds FEW120 36 34 93% 29 29.58 1001.8
30 16:56 NE 7 10.00 A Few Clouds FEW085 39 34 82% 35 29.61 1002.5
30 15:56 NE 7 10.00 A Few Clouds FEW090 37.9 34 39 30 86% 33 29.62 1003.1
30 14:56 NE 5 10.00 Overcast FEW013 OVC100 37.9 35.1 89% 35 29.64 1003.6
30 13:56 NE 3 10.00 Overcast OVC013 36 33.1 89% 29.65 1004.0
30 12:56 N 5 10.00 Overcast OVC013 37.9 34 86% 35 29.65 1004.2
30 11:56 NE 5 8.00 Overcast OVC017 33.1 33.1 100% 29 29.66 1004.3
30 10:56 NE 7 10.00 Overcast FEW029 OVC040 32 32 100% 26 29.66 1004.3
30 09:56 NE 8 10.00 Mostly Cloudy BKN029 BKN050 BKN075 30 30 33.1 30 100% 23 29.67 1004.6
30 08:56 NE 7 10.00 Overcast FEW060 OVC080 30.9 30.9 100% 25 29.67 1004.9
30 07:56 NE 7 10.00 Overcast SCT034 BKN050 OVC065 30.9 30.9 100% 25 29.68 1005.2
30 06:56 NE 5 10.00 Overcast BKN016 OVC065 33.1 33.1 100% 29 29.69 1005.4
30 05:56 Calm 10.00 Overcast OVC065 32 32 100% 29.7 1005.6
30 04:56 N 6 10.00 Overcast OVC040 33.1 33.1 100% 28 29.71 1006.0
30 03:56 NE 8 10.00 Light Rain OVC036 33.8 0 33.1 30.9 0% 28 29.71 1006.2
30 02:56 Calm 10.00 Unknown Precip BKN012 OVC021 32 32 100% 29.72 1006.5
30 01:56 NE 6 10.00 Unknown Precip BKN027 OVC042 33.1 32 96% 28 29.71 1006.1
30 00:56 NE 8 10.00 Unknown Precip BKN044 OVC055 30.9 30.9 100% 24 29.71 1006.1
29 23:56 N 9 10.00 Overcast FEW028 BKN039 OVC048 32 32 100% 25 29.71 1006.0
29 22:56 S 3 10.00 Overcast FEW011 BKN046 OVC055 32 32 100% 29.71 1006.0
29 21:56 N 5 10.00 Overcast OVC060 33.1 33.1 39.9 33.1 100% 29 29.7 1005.7
29 20:56 NW 5 10.00 Light Rain SCT040 OVC050 35.1 35.1 100% 32 29.7 1005.8
29 19:56 Calm 10.00 Overcast BKN024 OVC055 34 34 100% 29.71 1006.0
29 18:56 NW 3 10.00 Overcast OVC055 34 34 100% 29.71 1006.1
29 17:56 N 3 10.00 Overcast SCT035 OVC045 39 35.1 86% 29.72 1006.5
29 16:56 W 5 10.00 Overcast BKN060 OVC075 39 33.1 79% 36 29.73 1006.8
29 15:56 N 8 10.00 A Few Clouds FEW075 37 34 37.9 28.9 89% 32 29.73 1006.8
29 14:56 N 5 10.00 Fair CLR 34 33.1 97% 30 29.73 1006.8
29 12:56 NE 9 10.00 A Few Clouds FEW065 33.1 30 89% 26 29.74 1007.0
29 11:56 NE 14 10.00 Overcast OVC070 30.9 30.9 100% 21 29.73 1006.8
Date Time (akdt) Wind (mph) Vis. (mi.) Weather Sky Cond. Air Dwpt Max. Min. Relative Humidity Wind Chill (°F) Heat Index (°F) altimeter (in) sea level (mb) 1 hr 3 hr 6 hr
6 hour
Temperature (ºF) Pressure Precipitation (in)